Location: Beaurevoir
(49.9971°N, 3.3085°E)
Time: 03:26:42
(UTC+00:00)

Daily predictions for brighter satellites

Satellite Brightness Start Highest point End
(mag) Time Altitude Azimuth Time Altitude Azimuth Time Altitude Azimuth
Cosmos 2228 Rocket 3.5 00:05:20 37° SSE 00:06:44 53° E 00:11:07 10° NNE
Meteor 1-12 Rocket 4.3 00:02:52 10° NNW 00:08:47 87° ENE 00:11:47 31° SSE
Cosmos 2082 Rocket 2.9 00:07:01 30° SSE 00:09:10 42° ESE 00:14:32 10° NE
Helios 1A Rocket 4.0 00:07:44 23° ESE 00:09:34 37° ENE 00:13:08 10° N
Cosmos 1833 Rocket 2.9 00:08:10 27° SW 00:11:19 67° WNW 00:16:56 10° NNE
BREEZE-M DEB (TANK) 3.3 00:13:11 43° SSE 00:13:11 43° SSE 00:18:55 10° ESE
Cosmos 724 4.2 00:12:02 33° SSW 00:14:47 74° SE 00:20:37 10° NE
Cosmos 1908 4.1 00:12:37 10° NNW 00:15:50 31° W 00:16:07 31° WSW
CZ-2D R/B 4.5 00:14:49 10° ENE 00:17:16 13° E 00:19:42 10° ESE
PSLV R/B 4.5 00:20:29 10° N 00:24:48 42° WNW 00:26:44 27° WSW
USA 267 3.2 00:18:25 10° ENE 00:25:00 85° SSE 00:30:21 17° SW
Cosmos 1140 Rocket 3.9 00:22:28 27° SW 00:25:10 57° WNW 00:30:20 10° NNE
Cosmos 1441 Rocket 3.8 00:23:27 10° NNW 00:26:47 36° W 00:27:03 36° WSW
Cosmos 1707 4.2 00:26:20 22° W 00:27:23 25° WNW 00:30:30 10° NNW
Cosmos 1455 3.9 00:26:32 10° NNE 00:29:25 24° ENE 00:31:18 16° ESE
Cosmos 1733 Rocket 2.9 00:26:06 10° NNW 00:30:26 83° W 00:31:54 41° S
Cosmos 841 Rocket 4.5 00:26:12 10° NNW 00:31:14 45° ENE 00:36:15 10° SE
Resurs 1-4 Rocket 4.2 00:28:49 10° NE 00:32:14 17° E 00:35:37 10° SE
Cosmos 1400 Rocket 2.7 00:32:16 47° SSW 00:33:21 84° WNW 00:37:22 10° N
GP-B 3.6 00:29:21 10° N 00:33:34 46° W 00:35:02 33° SW
H-2A R/B 3.0 00:32:54 10° N 00:37:03 40° WNW 00:38:59 26° WSW
Cosmos 381 Rocket 4.5 00:31:34 10° NNW 00:38:00 78° WSW 00:41:55 25° SSE
Cosmos 2278 4.3 00:34:50 10° NNW 00:40:30 57° NE 00:46:07 10° SE
NOSS 3-4 (A) 4.0 00:35:26 10° NW 00:42:07 55° WSW 00:47:10 22° SSE
NOSS 3-4 (C) 4.0 00:35:32 10° NW 00:42:13 55° SW 00:47:19 22° SSE
Cosmos 1346 Rocket 2.6 00:40:09 10° NNW 00:44:03 90° NW 00:45:17 42° S
Cosmos 676 Rocket 4.4 00:42:47 30° S 00:45:11 56° ESE 00:50:25 10° NNE
Cosmos 468 Rocket 3.9 00:41:41 10° NNW 00:47:00 76° WSW 00:49:47 28° SSE
Cosmos 2251 Rocket 3.8 00:44:26 28° SW 00:47:09 60° WNW 00:52:24 10° NNE
Cosmos 407 Rocket 3.9 00:44:27 26° SW 00:47:18 55° WNW 00:52:28 10° NNE
Cosmos 1954 Rocket 4.1 00:48:42 32° S 00:51:12 75° ESE 00:56:31 10° NNE
Okean 2 3.9 00:49:49 30° SSE 00:51:20 48° E 00:55:11 10° NNE
Cosmos 2333 Rocket 4.0 00:47:59 10° NNW 00:53:02 31° NE 00:58:06 10° ESE
CZ-2C R/B 4.0 00:49:04 10° SE 00:53:40 34° ENE 00:58:20 10° N
Meteor 1-4 Rocket 3.4 00:53:08 26° ESE 00:53:43 28° E 00:56:21 10° NNE
Cosmos 1190 Rocket 4.0 00:51:10 31° SSW 00:53:44 82° WNW 00:59:05 10° NNE
Cosmos 1763 Rocket 4.0 00:51:15 10° NW 00:56:18 45° WSW 00:58:19 31° SSW
Cosmos 2322 Rocket 3.4 00:52:45 10° NNW 00:58:07 42° NE 01:03:27 10° ESE
Cosmos 1300 3.4 00:55:39 10° NNW 00:58:54 33° W 00:59:22 32° WSW
Cosmos 1703 Rocket 4.3 00:58:54 24° SSE 01:01:10 47° E 01:05:27 10° NNE
USA 234 3.4 00:56:30 13° SSE 01:02:14 48° SW 01:08:33 10° WNW
SL-14 R/B 3.9 01:01:39 31° WSW 01:02:53 42° WNW 01:06:34 10° N
Cosmos 1953 2.3 00:59:35 10° N 01:03:31 75° ENE 01:05:20 30° SSE
SL-8 R/B 3.9 00:59:37 10° W 01:04:11 46° SSW 01:08:44 10° SE
Cosmos 1697 Rocket 4.2 01:00:39 10° WNW 01:04:29 19° W 01:05:44 18° WSW
Cosmos 1862 Rocket 3.8 01:04:14 33° SW 01:05:55 55° WNW 01:10:11 10° N
Aureole 3 3.2 01:09:14 39° WSW 01:09:40 43° WNW 01:12:34 10° N
Cosmos 1980 Rocket 3.0 01:06:53 10° NW 01:11:57 33° WSW 01:14:01 26° SW
Nadezhda 1 Rocket 4.1 01:06:51 10° N 01:13:19 84° E 01:18:17 18° S
Cosmos 1242 Rocket 4.2 01:13:25 14° SE 01:14:40 18° E 01:16:45 10° NE
Cosmos 540 Rocket 4.0 01:09:52 10° NW 01:14:44 42° WSW 01:16:52 28° SSW
Cosmos 1300 Rocket 4.5 01:12:25 10° N 01:16:36 44° ENE 01:20:25 12° SSE
ADEOS II 3.7 01:15:09 10° NE 01:19:35 27° E 01:23:58 10° SSE
MOZ.5/SAFIR/RUBIN 5/SL-8 3.7 01:18:20 24° S 01:21:12 76° WSW 01:25:56 10° NNW
Cosmos 2369 4.4 01:17:55 10° NW 01:23:04 35° WSW 01:25:30 25° SSW
COSMOS 2406 3.3 01:19:32 24° SW 01:23:05 73° WNW 01:28:52 10° NNE
Cosmos 1408 4.4 01:21:25 12° SE 01:23:10 19° E 01:25:22 10° NE
Cosmos 1356 Rocket 4.0 01:22:17 27° SW 01:24:00 43° WNW 01:27:56 10° N
Lacrosse 5 rocket 1.1 01:20:16 10° WNW 01:24:24 76° SW 01:28:20 10° SE
IDEFIX/ARIANE 42P 3.0 01:19:39 10° NNE 01:24:50 56° E 01:28:28 19° S
EXPRESS MD2 4.3 01:27:55 20° SE 01:28:06 20° SE 01:30:53 10° E
Okean 1-7 3.2 01:30:04 28° SSW 01:32:09 59° WNW 01:36:26 10° N
Okean 3 4.4 01:34:53 22° WSW 01:36:43 33° WNW 01:40:29 10° N
ATLAS 2AS CENTAUR R/B 3.7 01:32:42 10° NW 01:39:26 49° NE 01:45:54 10° ESE
Cosmos 1315 Rocket 2.7 01:39:37 28° SSW 01:41:35 74° WNW 01:45:31 10° N
SL-16 R/B 2.2 01:37:02 10° NNW 01:42:42 72° WSW 01:48:20 10° SSE
SJ 16-02 2.7 01:39:50 13° SSE 01:43:03 30° ESE 01:46:50 10° NE
CZ-2C R/B 4.0 01:37:38 10° NNE 01:43:17 49° E 01:48:25 12° S
Helios 1A Rocket 4.2 01:43:06 20° WSW 01:44:01 22° W 01:47:06 10° NW
Cosmos 1850 Rocket 4.1 01:46:14 20° SSW 01:49:53 77° ESE 01:55:10 10° NNE
Cosmos 2082 Rocket 3.1 01:48:50 15° WSW 01:53:18 41° NW 01:58:42 10° NNE
Cosmos 1709 Rocket 4.1 01:49:42 16° S 01:54:50 88° E 02:01:15 10° N
Cosmos 1741 Rocket 4.0 01:51:18 20° SSW 01:55:00 79° ESE 02:00:18 10° NNE
Cosmos 2219 Rocket 3.3 01:50:22 10° NNW 01:55:49 46° NE 02:01:15 10° SE
Cosmos 1782 Rocket 3.6 01:52:11 10° NNW 01:56:31 62° W 01:59:38 18° S
Cosmos 2181 Rocket 4.5 01:50:38 10° N 01:56:59 64° ENE 02:03:14 10° SSE
SL-16 R/B 3.0 01:50:50 10° SSE 01:57:00 66° ENE 02:03:14 10° NNW
Cosmos 1908 Rocket 4.4 01:53:08 10° NNW 01:57:09 33° W 01:59:24 21° SW
CZ-2D R/B 2.3 01:52:41 10° NNE 01:58:12 77° ESE 02:02:42 15° S
Cosmos 1703 4.0 02:00:01 12° SSE 02:03:14 45° E 02:06:50 10° NNE
Cosmos 1455 3.2 02:00:58 10° NW 02:03:51 25° W 02:05:04 20° WSW
Meteor 1-28 Rocket 3.6 02:00:29 10° SSE 02:04:00 60° ENE 02:07:31 10° N
Cosmos 2360 Rocket 2.2 01:59:05 10° NNW 02:04:48 88° ENE 02:10:29 10° SSE
Cosmos 968 Rocket 3.6 02:02:10 17° SSW 02:06:07 72° ESE 02:11:16 10° NNE
CRYOSAT 2 4.4 02:01:23 10° N 02:06:18 82° E 02:10:49 12° S
Genesis I 3.8 02:05:37 19° S 02:07:48 40° ESE 02:11:09 10° NE
USA 267 4.0 02:01:30 10° ENE 02:07:50 54° NNW 02:14:09 10° W
RESURS DK-1 2.7 02:04:54 10° NNW 02:08:58 66° ENE 02:12:59 10° SE
Meteor 1-24 Rocket 4.5 02:03:13 10° S 02:09:04 56° E 02:14:56 10° NNE
MSX 3.8 02:05:24 10° NNE 02:11:10 78° WNW 02:16:00 15° SSW
Resurs 1-4 Rocket 2.1 02:07:22 10° NNE 02:12:39 79° WNW 02:17:04 15° SSW
Cosmos 841 Rocket 4.4 02:08:21 10° NW 02:12:54 31° WSW 02:16:19 16° SSW
H-2A R/B 3.9 02:13:08 10° N 02:16:59 47° WNW 02:19:49 17° SW
FENGYUN 3A 3.8 02:16:41 10° NNE 02:22:06 78° ESE 02:27:26 10° S
COBE Rocket 4.5 02:19:03 10° N 02:23:40 45° WNW 02:27:39 14° SW
Meteor 1-4 Rocket 4.2 02:25:17 11° W 02:26:48 15° WNW 02:28:40 10° NNW
Geosat 4.5 02:27:15 10° SE 02:32:12 66° NE 02:37:12 10° NNW
SL-24 R/B 4.4 02:28:46 10° S 02:33:37 69° W 02:38:26 10° N
CZ-2C R/B 3.1 02:29:15 11° SSW 02:33:53 39° W 02:38:45 10° NNW
Cosmos 2242 Rocket 3.9 02:30:52 14° SSW 02:34:37 53° WNW 02:39:02 10° N
Cosmos 2333 Rocket 2.3 02:32:05 10° NW 02:37:42 61° WSW 02:43:20 10° SSE
Timation 1 Rocket 4.4 02:32:20 13° SW 02:37:44 73° WNW 02:43:43 10° NNE
Sich 1 Rocket 3.9 02:33:18 10° N 02:37:51 74° E 02:42:18 10° SSE
Cosmos 1825 3.7 02:35:00 10° SSE 02:38:01 30° E 02:41:04 10° NNE
Cosmos 2098 Rocket 3.7 02:33:10 10° NNW 02:38:12 66° W 02:44:10 10° S
Cosmos 1953 4.5 02:37:39 10° WNW 02:38:44 11° W 02:39:49 10° W
Cosmos 2151 Rocket 3.7 02:35:51 10° N 02:40:22 84° E 02:44:50 10° S
Cosmos 1814 Rocket 4.3 02:36:28 10° NNW 02:41:27 47° WSW 02:46:27 10° S
Cosmos 2292 4.4 02:39:03 10° NNW 02:42:07 64° W 02:45:43 10° S
Cosmos 2322 Rocket 2.7 02:36:54 10° NW 02:42:10 41° WSW 02:47:25 10° S
SL-27 R/B 1.9 02:40:26 14° SSW 02:42:44 70° WNW 02:45:32 10° NNE
Cosmos 1892 3.6 02:40:46 10° SSE 02:44:05 42° E 02:47:26 10° NNE
Cosmos 1242 Rocket 3.6 02:44:54 12° WSW 02:46:52 21° WNW 02:49:12 10° NNW
Meteor 2-5 Rocket 3.9 02:43:30 10° SSW 02:49:24 77° WNW 02:55:24 10° N
SL-4 R/B 3.6 02:47:42 10° SSW 02:51:18 26° SE 02:55:01 10° E
Okean 2 Rocket 3.0 02:48:51 10° NNW 02:53:15 80° W 02:57:39 10° S
Cosmos 1408 3.6 02:53:36 11° SW 02:55:55 23° WNW 02:58:23 10° NNW
Cosmos 2074 Rocket 4.1 02:50:26 10° S 02:56:40 89° W 03:02:55 10° N
Cosmos 1674 Rocket 3.7 02:53:42 10° S 02:58:09 85° E 03:02:36 10° N
Cosmos 1570 Rocket 4.0 02:54:03 10° NNW 02:59:22 75° WSW 03:04:40 10° SSE
ADEOS II 2.5 02:54:23 10° N 02:59:28 51° WNW 03:04:31 10° SW
Lacrosse 5 rocket 2.9 02:59:51 10° W 03:02:05 14° SW 03:04:15 10° SSW
Cosmos 2208 Rocket 4.1 02:57:12 10° NNW 03:02:33 89° WSW 03:07:46 10° SSE
IDEFIX/ARIANE 42P 3.9 02:59:43 10° N 03:04:03 27° WNW 03:08:22 10° WSW
Cosmos 1833 4.3 02:58:45 10° SSW 03:04:26 78° WNW 03:10:07 10° NNE
ALOS 2.3 03:00:17 10° N 03:04:53 69° WNW 03:09:28 10° SSW
